| time (UTC) | temp F | wind direction | speed knots | gust knots | rain 1hr in | rain 24hr in | rain mn in | humidity % | barometer mb |
| 20260503185003 | 56 | 294 | 7.8 | 12.2 | 0.00 | 0.00 | 0.00 | 42 | 1016.9 |
| 20260503184503 | 56 | 251 | 7.8 | 12.2 | 0.00 | 0.00 | 0.00 | 42 | 1017.0 |
| 20260503184004 | 56 | 221 | 13.0 | 19.1 | 0.00 | 0.00 | 0.00 | 44 | 1017.2 |
| 20260503183716 | 54 | 274 | 6.1 | 16.5 | 0.00 | 0.00 | 0.00 | 44 | 1017.3 |
| 20260503183003 | 55 | 272 | 7.0 | 20.9 | 0.00 | 0.00 | 0.00 | 43 | 1017.3 |
| 20260503182503 | 57 | 298 | 9.6 | 13.0 | 0.00 | 0.00 | 0.00 | 40 | 1017.4 |
| 20260503182005 | 55 | 236 | 8.7 | 13.0 | 0.00 | 0.00 | 0.00 | 44 | 1017.4 |
| 20260503181504 | 55 | 252 | 9.6 | 16.5 | 0.00 | 0.00 | 0.00 | 44 | 1017.5 |
| 20260503181003 | 54 | 226 | 10.4 | 18.2 | 0.00 | 0.00 | 0.00 | 43 | 1017.5 |
| 20260503180503 | 56 | 224 | 8.7 | 19.1 | 0.00 | 0.00 | 0.00 | 41 | 1017.6 |
| 20260503180003 | 55 | 223 | 12.2 | 18.2 | 0.00 | 0.00 | 0.00 | 45 | 1017.6 |
| 20260503175503 | 56 | 220 | 6.1 | 13.0 | 0.00 | 0.00 | 0.00 | 41 | 1017.6 |
| 20260503175004 | 55 | 249 | 7.8 | 18.2 | 0.00 | 0.00 | 0.00 | 42 | 1017.7 |
| 20260503174718 | 55 | 269 | 7.0 | 18.2 | 0.00 | 0.00 | 0.00 | 42 | 1017.8 |
| 20260503174003 | 53 | 237 | 10.4 | 16.5 | 0.00 | 0.00 | 0.00 | 44 | 1017.7 |
| 20260503173503 | 53 | 263 | 8.7 | 18.2 | 0.00 | 0.00 | 0.00 | 46 | 1017.7 |
| 20260503173003 | 53 | 227 | 10.4 | 14.8 | 0.00 | 0.00 | 0.00 | 44 | 1017.9 |
| 20260503172503 | 55 | 205 | 10.4 | 19.1 | 0.00 | 0.00 | 0.00 | 45 | 1017.8 |
| 20260503172003 | 54 | 287 | 6.1 | 16.5 | 0.00 | 0.00 | 0.00 | 45 | 1017.8 |
| 20260503171718 | 53 | 261 | 9.6 | 16.5 | 0.00 | 0.00 | 0.00 | 43 | 1018.0 |
| 20260503171217 | 55 | 253 | 8.7 | 12.2 | 0.00 | 0.00 | 0.00 | 43 | 1018.2 |
| 20260503170718 | 54 | 287 | 3.5 | 14.8 | 0.00 | 0.00 | 0.00 | 42 | 1018.0 |
| 20260503151003 | 51 | 258 | 6.1 | 10.4 | 0.00 | 0.01 | 0.00 | 43 | 1019.0 |
| 20260503150717 | 50 | 201 | 5.2 | 20.9 | 0.00 | 0.01 | 0.00 | 46 | 1019.1 |
| 20260503131003 | 43 | 217 | 3.5 | 12.2 | 0.00 | 0.01 | 0.00 | 72 | 1019.6 |
| 20260503130503 | 43 | 247 | 5.2 | 12.2 | 0.00 | 0.01 | 0.00 | 72 | 1019.3 |
| 20260503130218 | 43 | 244 | 7.0 | 10.4 | 0.00 | 0.01 | 0.00 | 73 | 1019.4 |
| 20260503110503 | 33 | 206 | 1.7 | 4.3 | 0.00 | 0.01 | 0.00 | 97 | 1018.4 |
| 20260503110217 | 33 | 217 | 1.7 | 2.6 | 0.00 | 0.01 | 0.00 | 97 | 1018.5 |
| 20260503090503 | 31 | 206 | 0.0 | 1.7 | 0.00 | 0.01 | 0.00 | 96 | 1017.9 |
| 20260503081503 | 32 | 0 | 0.0 | 0.0 | 0.00 | 0.01 | 0.00 | 94 | 1018.0 |
| 20260503081003 | 32 | 0 | 0.0 | 0.0 | 0.00 | 0.01 | 0.00 | 94 | 1017.9 |
| 20260503080503 | 32 | 0 | 0.0 | 0.0 | 0.00 | 0.01 | 0.00 | 94 | 1017.8 |
| 20260503080217 | 32 | 0 | 0.0 | 0.0 | 0.00 | 0.01 | 0.00 | 94 | 1017.8 |
| 20260503072504 | 33 | 0 | 0.0 | 0.0 | 0.00 | 0.01 | 0.00 | 93 | 1017.9 |
| 20260503072003 | 33 | 200 | 0.9 | 1.7 | 0.00 | 0.01 | 0.00 | 93 | 1017.6 |
| 20260503071503 | 33 | 203 | 0.0 | 1.7 | 0.00 | 0.01 | 0.00 | 93 | 1017.7 |
| 20260503071004 | 33 | 203 | 0.9 | 1.7 | 0.00 | 0.01 | 0.00 | 93 | 1017.5 |
| 20260503070503 | 33 | 0 | 0.0 | 0.0 | 0.00 | 0.01 | 0.00 | 93 | 1017.5 |
| 20260503060217 | 34 | 258 | 0.9 | 1.7 | 0.00 | 0.01 | 0.00 | 89 | 1017.7 |
| 20260503055003 | 34 | 202 | 0.0 | 1.7 | 0.00 | 0.01 | 0.00 | 89 | 1017.7 |
| 20260503054503 | 34 | 242 | 0.0 | 1.7 | 0.00 | 0.01 | 0.00 | 89 | 1017.8 |
| 20260503054003 | 34 | 221 | 0.9 | 1.7 | 0.00 | 0.01 | 0.00 | 89 | 1017.8 |
| 20260503053718 | 34 | 0 | 0.0 | 0.0 | 0.00 | 0.01 | 0.00 | 90 | 1017.8 |
| 20260503053004 | 34 | 213 | 0.9 | 1.7 | 0.00 | 0.01 | 0.00 | 90 | 1017.8 |
| 20260503052503 | 34 | 207 | 0.0 | 1.7 | 0.00 | 0.01 | 0.00 | 90 | 1018.2 |
| 20260503052003 | 34 | 212 | 0.0 | 1.7 | 0.00 | 0.01 | 0.00 | 90 | 1018.2 |
| 20260503051718 | 34 | 191 | 0.9 | 1.7 | 0.00 | 0.01 | 0.00 | 89 | 1017.9 |
| 20260503051003 | 34 | 207 | 0.0 | 1.7 | 0.00 | 0.01 | 0.00 | 90 | 1018.0 |
| 20260503050503 | 34 | 0 | 0.0 | 0.0 | 0.00 | 0.01 | 0.00 | 90 | 1017.9 |
| 20260503050003 | 34 | 195 | 0.9 | 2.6 | 0.00 | 0.01 | 0.00 | 90 | 1018.0 |
| 20260503045503 | 34 | 186 | 0.0 | 1.7 | 0.00 | 0.01 | 0.00 | 91 | 1018.3 |
| 20260503045003 | 34 | 0 | 0.0 | 0.0 | 0.00 | 0.01 | 0.00 | 91 | 1018.0 |
| 20260503044503 | 34 | 0 | 0.0 | 0.0 | 0.00 | 0.01 | 0.00 | 91 | 1018.3 |
| 20260503044003 | 33 | 0 | 0.0 | 0.0 | 0.00 | 0.01 | 0.00 | 90 | 1018.4 |
| 20260503043717 | 34 | 0 | 0.0 | 0.0 | 0.00 | 0.01 | 0.00 | 89 | 1018.3 |
| 20260503043218 | 34 | 0 | 0.0 | 0.0 | 0.00 | 0.01 | 0.00 | 89 | 1018.2 |
| 20260503042503 | 34 | 0 | 0.0 | 0.0 | 0.00 | 0.01 | 0.00 | 89 | 1018.3 |
| 20260503042003 | 34 | 0 | 0.0 | 0.0 | 0.00 | 0.01 | 0.00 | 89 | 1018.0 |
| 20260503041503 | 33 | 0 | 0.0 | 0.0 | 0.00 | 0.01 | 0.00 | 89 | 1018.2 |
| 20260503041003 | 33 | 0 | 0.0 | 0.0 | 0.00 | 0.01 | 0.00 | 90 | 1018.3 |
| 20260503040503 | 33 | 185 | 0.0 | 1.7 | 0.00 | 0.01 | 0.00 | 89 | 1018.3 |
| 20260503040003 | 33 | 0 | 0.0 | 0.0 | 0.00 | 0.01 | 0.00 | 89 | 1018.2 |
| 20260503035503 | 34 | 0 | 0.0 | 0.0 | 0.00 | 0.01 | 0.01 | 88 | 1018.2 |
| 20260503035003 | 34 | 33 | 0.0 | 1.7 | 0.00 | 0.01 | 0.01 | 88 | 1018.3 |
| 20260503034717 | 34 | 30 | 0.9 | 2.6 | 0.00 | 0.01 | 0.01 | 88 | 1018.3 |
| 20260503034218 | 35 | 244 | 0.9 | 1.7 | 0.00 | 0.01 | 0.01 | 86 | 1018.4 |
| 20260503033504 | 35 | 243 | 0.9 | 1.7 | 0.00 | 0.01 | 0.01 | 85 | 1018.2 |
| 20260503033003 | 35 | 0 | 0.0 | 0.0 | 0.00 | 0.01 | 0.01 | 85 | 1018.3 |
| 20260503032503 | 35 | 0 | 0.0 | 0.0 | 0.00 | 0.01 | 0.01 | 86 | 1018.2 |
| 20260503032218 | 35 | 0 | 0.0 | 0.0 | 0.00 | 0.01 | 0.01 | 86 | 1018.2 |
| 20260503031503 | 35 | 243 | 0.9 | 1.7 | 0.00 | 0.01 | 0.01 | 87 | 1018.0 |
| 20260503031003 | 35 | 244 | 0.0 | 1.7 | 0.00 | 0.01 | 0.01 | 87 | 1018.2 |
| 20260503030504 | 35 | 278 | 0.0 | 1.7 | 0.00 | 0.01 | 0.01 | 87 | 1018.3 |
| 20260503030003 | 35 | 259 | 0.0 | 1.7 | 0.00 | 0.01 | 0.01 | 87 | 1018.2 |
| 20260503025503 | 36 | 0 | 0.0 | 0.0 | 0.00 | 0.01 | 0.01 | 86 | 1018.2 |
| 20260503025218 | 36 | 0 | 0.0 | 0.0 | 0.00 | 0.01 | 0.01 | 86 | 1018.5 |
| 20260503024503 | 36 | 0 | 0.0 | 0.0 | 0.00 | 0.01 | 0.01 | 85 | 1018.5 |
| 20260503024003 | 36 | 0 | 0.0 | 0.0 | 0.00 | 0.01 | 0.01 | 85 | 1018.5 |
| 20260503023503 | 36 | 0 | 0.0 | 0.0 | 0.00 | 0.01 | 0.01 | 85 | 1018.4 |
| 20260503023003 | 36 | 0 | 0.0 | 0.0 | 0.00 | 0.01 | 0.01 | 84 | 1018.6 |
| 20260503022503 | 36 | 0 | 0.0 | 0.0 | 0.00 | 0.01 | 0.01 | 84 | 1018.5 |
| 20260503022003 | 37 | 0 | 0.0 | 0.0 | 0.00 | 0.01 | 0.01 | 85 | 1018.4 |
| 20260503021503 | 37 | 0 | 0.0 | 0.0 | 0.00 | 0.01 | 0.01 | 84 | 1018.4 |
| 20260503021003 | 37 | 0 | 0.0 | 0.0 | 0.00 | 0.01 | 0.01 | 85 | 1018.4 |
| 20260503020503 | 38 | 0 | 0.0 | 0.0 | 0.00 | 0.01 | 0.01 | 84 | 1018.5 |
| 20260503020003 | 38 | 0 | 0.0 | 0.0 | 0.00 | 0.01 | 0.01 | 84 | 1018.5 |
| 20260503015504 | 38 | 0 | 0.0 | 0.0 | 0.00 | 0.01 | 0.01 | 83 | 1018.4 |
| 20260503015217 | 39 | 0 | 0.0 | 0.0 | 0.00 | 0.01 | 0.01 | 82 | 1018.5 |
| 20260503014503 | 39 | 259 | 0.9 | 1.7 | 0.00 | 0.01 | 0.01 | 81 | 1018.3 |
| 20260503014003 | 39 | 288 | 0.0 | 1.7 | 0.00 | 0.01 | 0.01 | 81 | 1018.6 |
| 20260503013504 | 39 | 264 | 0.9 | 1.7 | 0.00 | 0.01 | 0.01 | 80 | 1018.5 |
| 20260503013003 | 39 | 301 | 0.9 | 2.6 | 0.00 | 0.01 | 0.01 | 80 | 1018.4 |
| 20260503012718 | 39 | 329 | 1.7 | 4.3 | 0.00 | 0.01 | 0.01 | 80 | 1018.4 |
| 20260503012003 | 39 | 305 | 1.7 | 2.6 | 0.00 | 0.01 | 0.01 | 79 | 1018.3 |
| 20260503011718 | 39 | 288 | 0.9 | 4.3 | 0.00 | 0.01 | 0.01 | 79 | 1018.3 |
| 20260503011003 | 39 | 327 | 0.0 | 2.6 | 0.00 | 0.01 | 0.01 | 81 | 1018.2 |
| 20260503010503 | 39 | 99 | 0.0 | 1.7 | 0.00 | 0.01 | 0.01 | 81 | 1018.3 |
| 20260503010003 | 39 | 266 | 0.0 | 2.6 | 0.00 | 0.01 | 0.01 | 82 | 1018.2 |
| 20260503005503 | 39 | 304 | 0.0 | 1.7 | 0.00 | 0.01 | 0.01 | 82 | 1018.3 |
| 20260503005003 | 39 | 0 | 0.0 | 0.0 | 0.00 | 0.01 | 0.01 | 82 | 1018.2 |
| 20260503004718 | 40 | 260 | 0.0 | 1.7 | 0.00 | 0.01 | 0.01 | 82 | 1018.0 |
| 20260503004003 | 40 | 254 | 0.0 | 1.7 | 0.00 | 0.01 | 0.01 | 81 | 1018.0 |
| 20260503003503 | 40 | 320 | 0.0 | 1.7 | 0.00 | 0.01 | 0.01 | 81 | 1018.0 |
| 20260503003003 | 40 | 317 | 0.9 | 4.3 | 0.00 | 0.01 | 0.01 | 80 | 1017.8 |
| 20260503002503 | 40 | 272 | 0.0 | 1.7 | 0.00 | 0.01 | 0.01 | 79 | 1017.6 |
| 20260503002003 | 40 | 274 | 1.7 | 2.6 | 0.00 | 0.01 | 0.01 | 79 | 1017.8 |
| 20260503001503 | 40 | 350 | 1.7 | 4.3 | 0.00 | 0.01 | 0.01 | 78 | 1017.8 |
| 20260503001004 | 40 | 318 | 2.6 | 4.3 | 0.00 | 0.01 | 0.01 | 77 | 1017.7 |
| 20260503000504 | 40 | 315 | 3.5 | 4.3 | 0.00 | 0.01 | 0.01 | 77 | 1017.8 |
| 20260503000003 | 41 | 311 | 2.6 | 6.1 | 0.00 | 0.02 | 0.01 | 77 | 1017.6 |
| 20260502235504 | 41 | 327 | 2.6 | 6.1 | 0.00 | 0.02 | 0.01 | 77 | 1017.5 |
| 20260502235003 | 41 | 293 | 0.9 | 2.6 | 0.00 | 0.02 | 0.01 | 77 | 1017.6 |
| 20260502234504 | 41 | 315 | 4.3 | 6.1 | 0.00 | 0.02 | 0.01 | 75 | 1017.5 |
| 20260502234003 | 41 | 325 | 4.3 | 7.0 | 0.00 | 0.02 | 0.01 | 76 | 1017.4 |
| 20260502233503 | 41 | 331 | 1.7 | 4.3 | 0.00 | 0.02 | 0.01 | 75 | 1017.7 |
| 20260502233003 | 41 | 348 | 1.7 | 2.6 | 0.00 | 0.02 | 0.01 | 75 | 1017.6 |
| 20260502232503 | 41 | 332 | 4.3 | 6.1 | 0.00 | 0.02 | 0.01 | 74 | 1017.6 |
| 20260502232003 | 41 | 335 | 1.7 | 4.3 | 0.00 | 0.02 | 0.01 | 75 | 1017.6 |
| 20260502231503 | 41 | 2 | 3.5 | 7.0 | 0.00 | 0.02 | 0.01 | 74 | 1017.5 |
| 20260502231003 | 41 | 347 | 5.2 | 10.4 | 0.00 | 0.02 | 0.01 | 74 | 1017.5 |
| 20260502230503 | 41 | 347 | 3.5 | 8.7 | 0.00 | 0.04 | 0.01 | 74 | 1017.4 |
| 20260502230003 | 41 | 336 | 6.1 | 10.4 | 0.00 | 0.05 | 0.01 | 73 | 1017.4 |
| 20260502225719 | 42 | 326 | 5.2 | 10.4 | 0.00 | 0.09 | 0.01 | 73 | 1017.5 |
| 20260502225218 | 42 | 330 | 0.0 | 2.6 | 0.00 | 0.10 | 0.01 | 76 | 1017.6 |
| 20260502224717 | 42 | 340 | 2.6 | 4.3 | 0.00 | 0.11 | 0.01 | 74 | 1017.5 |
| 20260502224003 | 42 | 357 | 4.3 | 7.0 | 0.00 | 0.11 | 0.01 | 73 | 1017.4 |
| 20260502223503 | 42 | 6 | 2.6 | 4.3 | 0.00 | 0.11 | 0.01 | 73 | 1017.5 |
| 20260502223218 | 42 | 330 | 2.6 | 10.4 | 0.00 | 0.11 | 0.01 | 72 | 1017.6 |
| 20260502222503 | 42 | 339 | 7.8 | 10.4 | 0.00 | 0.11 | 0.01 | 71 | 1017.5 |
| 20260502222003 | 42 | 325 | 3.5 | 4.3 | 0.00 | 0.11 | 0.01 | 74 | 1017.6 |
| 20260502221503 | 42 | 305 | 7.0 | 12.2 | 0.00 | 0.11 | 0.01 | 74 | 1017.4 |
| 20260502221003 | 42 | 323 | 5.2 | 13.0 | 0.00 | 0.11 | 0.01 | 74 | 1017.5 |
| 20260502220503 | 42 | 325 | 7.0 | 12.2 | 0.00 | 0.11 | 0.01 | 74 | 1017.5 |
| 20260502220218 | 42 | 331 | 4.3 | 12.2 | 0.00 | 0.11 | 0.01 | 73 | 1017.4 |
| 20260502215503 | 42 | 326 | 5.2 | 14.8 | 0.00 | 0.11 | 0.01 | 74 | 1017.6 |
| 20260502215003 | 43 | 358 | 7.8 | 10.4 | 0.00 | 0.11 | 0.01 | 73 | 1017.2 |
| 20260502214503 | 43 | 322 | 6.1 | 12.2 | 0.00 | 0.11 | 0.01 | 73 | 1017.3 |
| 20260502214003 | 43 | 345 | 5.2 | 7.0 | 0.00 | 0.11 | 0.01 | 75 | 1017.1 |
| 20260502213503 | 43 | 325 | 4.3 | 8.7 | 0.00 | 0.11 | 0.01 | 74 | 1017.4 |
| 20260502213003 | 42 | 325 | 3.5 | 8.7 | 0.00 | 0.11 | 0.01 | 77 | 1017.2 |
| 20260502212716 | 42 | 327 | 3.5 | 12.2 | 0.00 | 0.11 | 0.01 | 76 | 1017.4 |
| 20260502212003 | 43 | 329 | 7.0 | 10.4 | 0.00 | 0.11 | 0.01 | 76 | 1017.2 |
| 20260502211503 | 43 | 347 | 4.3 | 8.7 | 0.00 | 0.11 | 0.01 | 77 | 1017.1 |
| 20260502211218 | 43 | 319 | 2.6 | 6.1 | 0.00 | 0.11 | 0.01 | 76 | 1017.1 |
| 20260502210503 | 42 | 319 | 2.6 | 10.4 | 0.00 | 0.11 | 0.01 | 78 | 1017.1 |
| 20260502210004 | 42 | 7 | 10.4 | 13.0 | 0.00 | 0.11 | 0.01 | 77 | 1016.9 |
| 20260502205716 | 42 | 349 | 3.5 | 10.4 | 0.00 | 0.11 | 0.01 | 80 | 1017.2 |
| 20260502205003 | 42 | 315 | 3.5 | 7.0 | 0.00 | 0.11 | 0.01 | 79 | 1017.2 |
| 20260502204716 | 42 | 296 | 3.5 | 8.7 | 0.00 | 0.11 | 0.01 | 80 | 1017.2 |
| 20260502204003 | 42 | 275 | 2.6 | 4.3 | 0.00 | 0.12 | 0.01 | 81 | 1017.3 |
| 20260502203503 | 41 | 330 | 9.6 | 13.0 | 0.00 | 0.12 | 0.01 | 80 | 1017.1 |
| 20260502203003 | 42 | 318 | 4.3 | 6.1 | 0.00 | 0.14 | 0.01 | 80 | 1017.1 |
| 20260502202503 | 42 | 354 | 6.1 | 13.0 | 0.00 | 0.15 | 0.01 | 80 | 1017.0 |
| 20260502202003 | 42 | 323 | 5.2 | 12.2 | 0.00 | 0.16 | 0.01 | 79 | 1017.2 |
| 20260502201503 | 42 | 326 | 8.7 | 13.0 | 0.00 | 0.16 | 0.01 | 78 | 1017.2 |
| 20260502201003 | 43 | 7 | 7.0 | 10.4 | 0.00 | 0.16 | 0.01 | 77 | 1017.0 |
| 20260502200503 | 42 | 317 | 6.1 | 16.5 | 0.00 | 0.18 | 0.01 | 77 | 1017.1 |
| 20260502200003 | 42 | 340 | 6.1 | 12.2 | 0.00 | 0.18 | 0.01 | 77 | 1017.2 |
| 20260502195718 | 42 | 342 | 8.7 | 12.2 | 0.00 | 0.18 | 0.01 | 78 | 1017.2 |
| 20260502195003 | 42 | 317 | 3.5 | 8.7 | 0.00 | 0.19 | 0.01 | 80 | 1017.2 |
| 20260502194503 | 42 | 304 | 2.6 | 8.7 | 0.00 | 0.19 | 0.01 | 81 | 1017.2 |
| 20260502194003 | 41 | 307 | 6.1 | 8.7 | 0.00 | 0.19 | 0.01 | 80 | 1017.2 |
| 20260502193503 | 41 | 321 | 6.1 | 7.0 | 0.00 | 0.19 | 0.01 | 80 | 1017.3 |
| 20260502193217 | 42 | 294 | 2.6 | 4.3 | 0.00 | 0.19 | 0.01 | 82 | 1017.3 |
| 20260502192503 | 42 | 301 | 4.3 | 8.7 | 0.00 | 0.19 | 0.01 | 81 | 1017.3 |
| 20260502192217 | 42 | 295 | 5.2 | 8.7 | 0.00 | 0.19 | 0.01 | 81 | 1017.2 |
| 20260502191503 | 42 | 306 | 3.5 | 7.0 | 0.00 | 0.20 | 0.01 | 81 | 1017.4 |
| 20260502191217 | 42 | 305 | 2.6 | 6.1 | 0.00 | 0.20 | 0.01 | 82 | 1017.4 |
| 20260502190503 | 42 | 312 | 2.6 | 8.7 | 0.00 | 0.20 | 0.01 | 81 | 1017.6 |
| 20260502190004 | 42 | 322 | 3.5 | 10.4 | 0.00 | 0.21 | 0.01 | 82 | 1017.3 |
| 20260502185504 | 41 | 318 | 2.6 | 10.4 | 0.00 | 0.23 | 0.01 | 81 | 1017.6 |